Regional Weather Roundup
Issued by NWS

Home | Current Version | Previous Version | Graphics & Text | Print | Product List | Glossary On
Versions: 1 2 3 4 5 6 7 8 9 10 11 12 13 14 15 16 17 18 19 20 21 22 23 24 25 26 27 28 29 30 31 32 33 34 35 36 37 38 39 40 41 42 43 44 45 46 47 48 49 50
000
ASUS43 KIND 181109
RWRIN

WEATHER ROUNDUP FOR INDIANA
NATIONAL WEATHER SERVICE INDIANAPOLIS IN
600 AM EST THU DEC 18 2014

NOTE: "FAIR" INDICATES FEW OR NO CLOUDS BELOW 12,000 FEET WITH NO
SIGNIFICANT WEATHER AND/OR OBSTRUCTIONS TO VISIBILITY.

* - STATION DOES NOT REPORT WEATHER SUCH AS PRECIPITATION OR FOG.

+ - STATION NOT QUALITY CONTROLLED BY THE NATIONAL WEATHER SERVICE.
    USE DATA WITH CAUTION...ESPECIALLY DEWPOINT AND RELATIVE
    HUMIDITY OBSERVATIONS.

INZ001>003-010>013-019-020-181200-
NORTHWEST INDIANA

CITY           SKY/WX    TMP DP  RH WIND       PRES   REMARKS
GARY /AIRPORT/ CLOUDY    27  18  69 W7        30.28F WCI  19
KNOX *+        CLOUDY    26  19  77 W6        30.26R WCI  19
LA PORTE +     CLOUDY    27  22  80 W7        30.26R WCI  20
MICHIGAN CITY+ CLOUDY    28  19  69 W3        30.26S
MONTICELLO +   CLOUDY    25  18  77 CALM      30.25F
RENSSELAER +   CLOUDY    25  21  86 SW3       30.28R
VALPARAISO     CLOUDY    24  17  74 SW6       30.26S WCI  17

$$

LMZ046-743>745-181200-
SOUTHERN LAKE MICHIGAN

STATION/POSITION TIME  TEMP WIND        PRES
                       AIR  DIR/SP/G
                 (UTC) (F)  (DEG/KT/KT) (MB)

$$

INZ004-005-014>016-021>024-181200-
NORTH CENTRAL INDIANA

CITY           SKY/WX    TMP DP  RH WIND       PRES   REMARKS
GOSHEN         CLOUDY    27  21  78 W6        30.23S WCI  20
LOGANSPORT +   CLOUDY    25  19  80 CALM      30.26F
PERU/GRISSOM   CLOUDY    25  23  90 N5        30.24F WCI  19
ROCHESTER +    CLOUDY    28  23  80 CALM      30.26S
SOUTH BEND     CLOUDY    28  20  71 W6        30.25S WCI  22
WARSAW +       CLOUDY    27  21  80 W5        30.24S WCI  21

$$

INZ006>009-017-018-025>027-181200-
NORTHEAST INDIANA

CITY           SKY/WX    TMP DP  RH WIND       PRES   REMARKS
ANGOLA *+      CLOUDY    27  21  80 W5        30.21R WCI  21
AUBURN +       CLOUDY    28  23  80 W6        30.24R WCI  22
FORT WAYNE     CLOUDY    27  22  81 W5        30.25S WCI  22
HUNTINGTON +   CLOUDY    26  21  81 CALM      30.25R

$$

INZ028-029-035-036-043>045-051>053-181200-
WEST CENTRAL INDIANA

CITY           SKY/WX    TMP DP  RH WIND       PRES   REMARKS
GREENCASTLE +  CLOUDY    25  18  74 CALM      30.24F
LAFAYETTE      CLOUDY    24  18  77 CALM      30.27F
TERRE HAUTE    CLOUDY    25  18  74 CALM      30.29R

$$

INZ030>032-037>040-046>048-054>057-064-065-181200-
CENTRAL INDIANA

CITY           SKY/WX    TMP DP  RH WIND       PRES   REMARKS
CP ATTERBURY + CLOUDY    27  19  74 MISG      30.27F
FRANKFORT +    CLOUDY    25  20  80 CALM      30.25F
INDIANAPOLIS   CLOUDY    24  18  77 NE3       30.23F
-EAGLE CREEK   CLOUDY    24  18  77 NE7       30.23F WCI  16
KOKOMO *+      CLOUDY    27  16  63 CALM      30.25F
MARION +       CLOUDY    26  22  85 NW3       30.26S
MT COMFORT *+  CLOUDY    25  14  63 CALM      30.26F
SHELBYVILLE    CLOUDY    27  19  72 NE3       30.26R
ZIONSVILLE +   CLOUDY    25  18  74 CALM      30.25F

$$

INZ033-034-041-042-049-050-058-059-181200-
EAST CENTRAL INDIANA

CITY           SKY/WX    TMP DP  RH WIND       PRES   REMARKS
MUNCIE         CLOUDY    25  19  78 W3        30.26R

$$

INZ060-061-067>069-081>083-085>088-181200-
SOUTHWEST INDIANA

CITY           SKY/WX    TMP DP  RH WIND       PRES   REMARKS
EVANSVILLE     MOCLDY    30  24  78 NE6       30.28F WCI  24
HUNTINGBURG *+ CLOUDY    28  21  74 NE3       30.28S
WASHINGTON +   CLOUDY    27  19  74 E6        30.28R WCI  20

$$

INZ062-063-066-070>080-084-089>092-181200-
SOUTH CENTRAL AND SOUTHEAST INDIANA

CITY           SKY/WX    TMP DP  RH WIND       PRES   REMARKS
BLOOMINGTON    CLOUDY    25  19  78 SE5       30.24F WCI  19
NORTH VERNON + CLOUDY    27  23  86 E3        30.28

$$



USA.gov is the U.S. government's official web portal to all federal, state and local government web resources and services.